Terminal Aerodrome Forecast
Issued by NWS Sterling, VA

Current Version | Previous Version | Text Only | Print | Product List | Glossary Off
Versions: 1 2 3 4 5 6 7 8 9 10 11 12 13 14 15 16 17 18 19 20 21

000
FTUS41 KLWX 141400 AAA
TAFIAD
TAF AMD
KIAD 141443Z 1415/1518 35006KT P6SM BKN250
     FM142300 00000KT P6SM FEW035 FEW250=

USA.gov is the U.S. government's official web portal to all federal, state and local government web resources and services.